INMARSAT 6-F1

Last updated on Sun Dec 07 2025 00:02:50 GMT+0000 (Coordinated Universal Time)

1 50319U 21128A 25340.51463693 -.00000166 00000+0 00000+0 0 9995 2 50319 0.0167 326.6821 0000167 22.9705 354.9361 1.00273590 14329
UTC large
Height (km)
Speed (km/s)
/
Latitude / Longitude
Inclination (degrees)
Orbital Period (minutes)
Azimuth
Elevation
Range (km)
Doppler Factor

Next 0 passes for location: London (51.5072 / 0.1276)

Sorry there are no passes over London.